When you browse on this site, cookies collect data to enhance your experience and personalize the content and advertising you see.
Visit our Privacy Policy to learn more. By continuing to use the site, you agree to this use of cookies and data.
  • Em Portugal
  • Lista de países
  • Para 7 dias
  • Temperatura da água
  • Mapas de satélite
  • Mapa do tempo
  • Widgets de tempo
  • user-avatar
    Iniciar Sessão

    Previsão horária em Brzozowka

    Hoje, 24 Fevereiro, Domingo

    Tempo Temperatura Precipitação Vento Pressão Humidade
    00:00 -4°C° 0 mm 3 m/s 771 mmHg 48%
    01:00 -2°C° 0 mm 3 m/s 771 mmHg 48%
    02:00 -2°C° 0.1 mm 3 m/s 771 mmHg 54%
    03:00 -2°C° 0.1 mm 3 m/s 770 mmHg 61%
    04:00 -2°C° 0.1 mm 3 m/s 770 mmHg 67%
    05:00 -2°C° 0 mm 3 m/s 770 mmHg 67%
    06:00 -2°C° 0 mm 3 m/s 769 mmHg 66%
    07:00 -2°C° 0 mm 3 m/s 769 mmHg 66%
    08:00 -1°C° 0 mm 3 m/s 769 mmHg 62%
    09:00 0°C° 0 mm 3 m/s 769 mmHg 59%
    10:00 +2°C° 0 mm 3 m/s 769 mmHg 56%
    11:00 +3°C° 0 mm 3 m/s 769 mmHg 56%
    12:00 +4°C° 0 mm 3 m/s 769 mmHg 55%
    13:00 +5°C° 0 mm 3 m/s 769 mmHg 55%
    14:00 +5°C° 0 mm 3 m/s 768 mmHg 59%
    15:00 +5°C° 0 mm 2 m/s 768 mmHg 63%
    16:00 +5°C° 0 mm 2 m/s 768 mmHg 67%
    17:00 +4°C° 0 mm 2 m/s 768 mmHg 68%
    18:00 +1°C° 0 mm 3 m/s 768 mmHg 70%
    19:00 0°C° 0 mm 3 m/s 767 mmHg 72%
    20:00 0°C° 0 mm 3 m/s 767 mmHg 73%
    21:00 0°C° 0 mm 3 m/s 767 mmHg 75%
    22:00 0°C° 0 mm 3 m/s 767 mmHg 77%
    23:00 0°C° 0 mm 3 m/s 767 mmHg 82%

    Amanhã, 25 Fevereiro, Segunda-feira

    Tempo Temperatura Precipitação Vento Pressão Humidade
    00:00 0°C° 0 mm 3 m/s 767 mmHg 86%
    01:00 0°C° 0 mm 3 m/s 767 mmHg 91%
    02:00 0°C° 0 mm 3 m/s 767 mmHg 93%
    03:00 0°C° 0 mm 3 m/s 767 mmHg 95%
    04:00 0°C° 0 mm 3 m/s 767 mmHg 96%
    05:00 +1°C° 0 mm 2 m/s 767 mmHg 96%
    06:00 +1°C° 0 mm 2 m/s 767 mmHg 96%
    07:00 +2°C° 0 mm 2 m/s 767 mmHg 96%
    08:00 +3°C° 0 mm 2 m/s 767 mmHg 94%
    09:00 +2°C° 0 mm 3 m/s 767 mmHg 92%
    10:00 +3°C° 0 mm 3 m/s 767 mmHg 89%
    11:00 +4°C° 0 mm 3 m/s 767 mmHg 87%
    12:00 +4°C° 0 mm 3 m/s 767 mmHg 85%
    13:00 +5°C° 0 mm 3 m/s 767 mmHg 83%
    14:00 +5°C° 0 mm 3 m/s 766 mmHg 84%
    15:00 +5°C° 0 mm 3 m/s 766 mmHg 84%
    16:00 +6°C° 0 mm 2 m/s 766 mmHg 84%
    17:00 +4°C° 0 mm 2 m/s 766 mmHg 86%
    18:00 +3°C° 0 mm 2 m/s 766 mmHg 88%
    19:00 +2°C° 0 mm 2 m/s 766 mmHg 91%
    20:00 +2°C° 0 mm 2 m/s 766 mmHg 91%
    21:00 +1°C° 0 mm 2 m/s 766 mmHg 91%
    22:00 +1°C° 0 mm 2 m/s 765 mmHg 91%
    23:00 +1°C° 0 mm 2 m/s 765 mmHg 92%

    Depois de amanhã, 26 Fevereiro, Terça-feira

    Tempo Temperatura Precipitação Vento Pressão Humidade
    00:00 +1°C° 0 mm 2 m/s 765 mmHg 92%
    01:00 +1°C° 0 mm 2 m/s 765 mmHg 92%
    02:00 +1°C° 0 mm 2 m/s 764 mmHg 93%
    03:00 +1°C° 0 mm 2 m/s 764 mmHg 95%
    04:00 +2°C° 0 mm 2 m/s 763 mmHg 96%
    05:00 +1°C° 0 mm 3 m/s 763 mmHg 96%
    06:00 +2°C° 0 mm 3 m/s 763 mmHg 96%
    07:00 +3°C° 0 mm 3 m/s 762 mmHg 96%
    08:00 +3°C° 0 mm 3 m/s 762 mmHg 92%
    09:00 +3°C° 0 mm 4 m/s 762 mmHg 89%
    10:00 +4°C° 0 mm 4 m/s 763 mmHg 85%
    11:00 +5°C° 0 mm 4 m/s 763 mmHg 79%
    12:00 +5°C° 0 mm 5 m/s 763 mmHg 73%
    13:00 +6°C° 0 mm 5 m/s 763 mmHg 67%
    14:00 +6°C° 0 mm 5 m/s 763 mmHg 69%
    15:00 +6°C° 0 mm 5 m/s 763 mmHg 72%
    16:00 +5°C° 0 mm 4 m/s 763 mmHg 74%
    17:00 +4°C° 0 mm 4 m/s 763 mmHg 79%
    18:00 +3°C° 0 mm 3 m/s 764 mmHg 84%
    19:00 +2°C° 0 mm 3 m/s 764 mmHg 90%
    20:00 +2°C° 0 mm 2 m/s 764 mmHg 90%
    21:00 +2°C° 0 mm 2 m/s 764 mmHg 90%
    22:00 +2°C° 0 mm 2 m/s 764 mmHg 91%
    23:00 +2°C° 0 mm 2 m/s 764 mmHg 90%

    27 Fevereiro, Quarta-feira

    Tempo Temperatura Precipitação Vento Pressão Humidade
    00:00 +2°C° 0 mm 1 m/s 764 mmHg 89%
    01:00 +2°C° 0 mm 1 m/s 764 mmHg 88%
    02:00 +2°C° 0 mm 1 m/s 764 mmHg 87%
    03:00 +1°C° 0 mm 2 m/s 764 mmHg 87%
    04:00 +1°C° 0 mm 2 m/s 763 mmHg 86%
    05:00 +1°C° 0 mm 2 m/s 763 mmHg 87%
    06:00 0°C° 0 mm 3 m/s 763 mmHg 89%
    07:00 0°C° 0 mm 3 m/s 762 mmHg 90%
    08:00 +2°C° 0 mm 3 m/s 762 mmHg 86%
    09:00 +3°C° 0 mm 3 m/s 762 mmHg 82%
    10:00 +5°C° 0 mm 3 m/s 761 mmHg 77%
    11:00 +7°C° 0 mm 3 m/s 761 mmHg 74%
    12:00 +7°C° 0 mm 4 m/s 760 mmHg 70%
    13:00 +8°C° 0 mm 4 m/s 760 mmHg 66%
    14:00 +9°C° 0 mm 3 m/s 759 mmHg 67%
    15:00 +9°C° 0 mm 3 m/s 759 mmHg 68%
    16:00 +9°C° 0 mm 3 m/s 758 mmHg 69%
    17:00 +8°C° 0 mm 3 m/s 758 mmHg 73%
    18:00 +7°C° 0 mm 3 m/s 758 mmHg 76%
    19:00 +4°C° 0 mm 3 m/s 757 mmHg 80%
    20:00 +4°C° 0 mm 3 m/s 757 mmHg 82%
    21:00 +3°C° 0 mm 3 m/s 756 mmHg 83%
    22:00 +3°C° 0 mm 3 m/s 756 mmHg 85%
    23:00 +3°C° 0 mm 3 m/s 755 mmHg 86%

    28 Fevereiro, Quinta-feira

    Tempo Temperatura Precipitação Vento Pressão Humidade
    00:00 +2°C° 0 mm 3 m/s 755 mmHg 86%
    01:00 +2°C° 0 mm 3 m/s 754 mmHg 87%
    02:00 +2°C° 0 mm 3 m/s 754 mmHg 87%
    03:00 +2°C° 0 mm 3 m/s 753 mmHg 88%
    04:00 +1°C° 0 mm 4 m/s 753 mmHg 88%
    05:00 +1°C° 0 mm 4 m/s 752 mmHg 88%
    06:00 +1°C° 0 mm 4 m/s 751 mmHg 88%
    07:00 +1°C° 0 mm 4 m/s 751 mmHg 88%
    08:00 +3°C° 0 mm 5 m/s 751 mmHg 81%
    09:00 +5°C° 0 mm 6 m/s 750 mmHg 74%
    10:00 +6°C° 0 mm 7 m/s 750 mmHg 67%
    11:00 +6°C° 0 mm 7 m/s 750 mmHg 67%
    12:00 +8°C° 0 mm 7 m/s 750 mmHg 67%
    13:00 +8°C° 0 mm 7 m/s 750 mmHg 67%
    14:00 +6°C° 0 mm 7 m/s 750 mmHg 69%
    15:00 +7°C° 0 mm 6 m/s 750 mmHg 70%
    16:00 +5°C° 0 mm 6 m/s 751 mmHg 72%
    17:00 +5°C° 0 mm 5 m/s 751 mmHg 76%
    18:00 +4°C° 0 mm 4 m/s 752 mmHg 80%
    19:00 +3°C° 0 mm 3 m/s 752 mmHg 84%
    20:00 +3°C° 0 mm 3 m/s 752 mmHg 86%
    21:00 +2°C° 0 mm 3 m/s 752 mmHg 89%
    22:00 +2°C° 0 mm 3 m/s 753 mmHg 91%
    23:00 +1°C° 0 mm 3 m/s 753 mmHg 91%

    1 Março, Sexta-feira

    Tempo Temperatura Precipitação Vento Pressão Humidade
    00:00 +1°C° 0 mm 3 m/s 753 mmHg 90%
    01:00 +1°C° 0 mm 3 m/s 753 mmHg 90%
    02:00 +1°C° 0 mm 3 m/s 753 mmHg 88%
    03:00 0°C° 0 mm 3 m/s 753 mmHg 86%
    04:00 0°C° 0 mm 3 m/s 754 mmHg 84%
    05:00 0°C° 0 mm 3 m/s 754 mmHg 84%
    06:00 0°C° 0 mm 3 m/s 754 mmHg 85%
    07:00 0°C° 0 mm 3 m/s 754 mmHg 86%
    08:00 0°C° 0 mm 4 m/s 755 mmHg 79%
    09:00 +1°C° 0 mm 4 m/s 755 mmHg 72%
    10:00 +2°C° 0 mm 5 m/s 756 mmHg 65%
    11:00 +2°C° 0 mm 5 m/s 756 mmHg 62%
    12:00 +3°C° 0 mm 5 m/s 757 mmHg 59%
    13:00 +3°C° 0 mm 5 m/s 757 mmHg 56%
    14:00 +2°C° 0 mm 5 m/s 757 mmHg 58%
    15:00 +2°C° 0 mm 5 m/s 757 mmHg 60%
    16:00 +1°C° 0 mm 5 m/s 757 mmHg 63%
    17:00 0°C° 0 mm 4 m/s 758 mmHg 68%
    18:00 -1°C° 0 mm 4 m/s 758 mmHg 74%
    19:00 -1°C° 0 mm 3 m/s 758 mmHg 79%
    20:00 -1°C° 0 mm 3 m/s 759 mmHg 80%
    21:00 -1°C° 0 mm 3 m/s 759 mmHg 82%
    22:00 -1°C° 0 mm 3 m/s 760 mmHg 83%
    23:00 -1°C° 0 mm 2 m/s 760 mmHg 82%
    Mostrar mais